Location: Elliott Island road
(38.3470°N, 75.9376°W)
Time: 10:57:44
(UTC-05:00)

Tiangong 2 - Visible Passes

Search period start: 23 January 2018 00:00
Search period end: 02 February 2018 00:00
Orbit: 384 x 390 km, 42.8° (Epoch: 23 January)

Date Brightness Start Highest point End Pass type
(mag) Time Alt. Az. Time Alt. Az. Time Alt. Az.
23 Jan 3.4 05:09:36 22° NE 05:09:36 22° NE 05:10:58 10° ENE visible
23 Jan 2.0 06:42:03 10° WNW 06:45:03 36° N 06:48:03 10° ENE visible
24 Jan 2.0 05:45:53 34° NNW 05:46:10 34° N 05:49:09 10° ENE visible
25 Jan 4.3 04:49:51 13° ENE 04:49:51 13° ENE 04:50:18 10° ENE visible
25 Jan 1.8 06:22:07 15° WNW 06:24:27 44° NNE 06:27:33 10° E visible
26 Jan 2.3 05:26:04 34° NNE 05:26:04 34° NNE 05:28:35 10° ENE visible
27 Jan 1.3 06:02:18 28° NW 06:03:48 63° NNE 06:06:58 10° E visible
28 Jan 3.2 05:06:17 27° ENE 05:06:17 27° ENE 05:08:02 10° E visible
28 Jan 1.7 06:38:42 10° WNW 06:41:47 45° SSW 06:44:50 10° SE visible
29 Jan 1.0 05:42:34 61° W 05:43:03 80° SSW 05:46:13 10° ESE visible
30 Jan 4.2 04:46:38 16° E 04:46:38 16° E 04:47:24 10° E visible
30 Jan 2.6 06:18:55 14° W 06:20:52 24° SSW 06:23:31 10° SSE visible
31 Jan 2.4 05:23:02 34° SSE 05:23:02 34° SSE 05:25:13 10° SE visible
01 Feb 3.3 05:59:31 13° SW 05:59:49 13° SW 06:01:26 10° S visible
